Regional Weather Roundup
Issued by NWS

Home | Current Version | Previous Version | Graphics & Text | Print | Product List | Glossary On
Versions: 1 2 3 4 5 6 7 8 9 10 11 12 13 14 15 16 17 18 19 20 21 22 23 24 25 26 27 28 29 30 31 32 33 34 35 36 37 38 39 40 41 42 43 44 45 46 47 48 49 50
973
ASUS43 KIND 251009
RWRIN

WEATHER ROUNDUP FOR INDIANA
NATIONAL WEATHER SERVICE INDIANAPOLIS IN
600 AM EDT THU AUG 25 2016

NOTE: "FAIR" INDICATES FEW OR NO CLOUDS BELOW 12,000 FEET WITH NO
SIGNIFICANT WEATHER AND/OR OBSTRUCTIONS TO VISIBILITY.

* - STATION DOES NOT REPORT WEATHER SUCH AS PRECIPITATION OR FOG.

+ - STATION NOT QUALITY CONTROLLED BY THE NATIONAL WEATHER SERVICE.
    USE DATA WITH CAUTION...ESPECIALLY DEWPOINT AND RELATIVE
    HUMIDITY OBSERVATIONS.

INZ001>003-010>013-019-020-251100-
NORTHWEST INDIANA

CITY           SKY/WX    TMP DP  RH WIND       PRES   REMARKS
GARY /AIRPORT/ LGT RAIN  73  72  94 SW8       29.99S
KNOX *+        CLOUDY    68  55  64 S6        30.01R
LA PORTE +     LGT RAIN N/A N/A N/A W6        30.00F
MICHIGAN CITY+ LGT RAIN  70  70 100 MISG      30.00R
MONTICELLO +   HVY RAIN  72  66  81 SW12G17   30.02F
RENSSELAER +   LGT RAIN  70  68  94 CALM      29.99F
VALPARAISO     CLOUDY    70  67  90 W8        30.00F

$$

LMZ046-743>745-251100-
SOUTHERN LAKE MICHIGAN

STATION/POSITION TIME  TEMP    WIND        PRES    WAVE
                       AIR SEA DIR/SP/G            HT
                 (UTC) (F)     (DEG/KT/KT) (MB)    (FT)
BURNS HARBOR     0900   72     190/ 13/ 18 1015.9R
MICHIGAN CITY    0900   72     190/ 17/ 19   N/A
5NW MICH CITY    1000   73 74  230/ 16/ 19   N/A     2

$$

INZ004-005-014>016-021>024-251100-
NORTH CENTRAL INDIANA

CITY           SKY/WX    TMP DP  RH WIND       PRES   REMARKS
GOSHEN         CLOUDY    70  67  90 S3        30.00F
LOGANSPORT +   LGT RAIN  72  72 100 W5        30.06R
PERU/GRISSOM   CLOUDY    70  70 100 NW6       30.03R
ROCHESTER +    LGT RAIN  73  72  94 SW7G17    30.04R
SOUTH BEND     LGT RAIN  70  70 100 SW7       30.00R
WARSAW +       CLOUDY    70  70 100 CALM      30.01R

$$

INZ006>009-017-018-025>027-251100-
NORTHEAST INDIANA

CITY           SKY/WX    TMP DP  RH WIND       PRES   REMARKS
ANGOLA *+      CLEAR     72  64  78 CALM      30.00F
AUBURN +       CLOUDY    70  66  88 CALM      30.01S
FORT WAYNE     CLOUDY    69  67  93 SW3       30.02F
HUNTINGTON +   CLOUDY   N/A N/A N/A SW3       30.02S

$$

INZ028-029-035-036-043>045-051>053-251100-
WEST CENTRAL INDIANA

CITY           SKY/WX    TMP DP  RH WIND       PRES   REMARKS
CRAWFORDSVL +  LGT RAIN  73  73 100 W6G14     30.05R
GREENCASTLE +  MOCLDY    73  73 100 CALM      30.06S FOG
LAFAYETTE      CLOUDY    71  71 100 CALM      30.01F
TERRE HAUTE    CLOUDY    78  74  87 SW6       30.04S

$$

INZ030>032-037>040-046>048-054>057-064-065-251100-
CENTRAL INDIANA

CITY           SKY/WX    TMP DP  RH WIND       PRES   REMARKS
INDIANAPOLIS   MOCLDY    75  73  93 SW7       30.04S
-EAGLE CREEK   PTCLDY    75  73  93 S3        30.03F
MARION +       CLOUDY    73  73  99 NW20G28   30.07R FOG
MT COMFORT *+  CLOUDY    72  72 100 S6        30.05S
SHELBYVILLE    PTCLDY    75  72  90 S6        30.05F
ZIONSVILLE +   PTCLDY    73  72  99 S3        30.04F FOG

$$

INZ033-034-041-042-049-050-058-059-251100-
EAST CENTRAL INDIANA

CITY           SKY/WX    TMP DP  RH WIND       PRES   REMARKS
MUNCIE         CLOUDY    73  70  90 S5        30.04S

$$

INZ060-061-067>069-081>083-085>088-251100-
SOUTHWEST INDIANA

CITY           SKY/WX    TMP DP  RH WIND       PRES   REMARKS
EVANSVILLE     CLEAR     75  73  93 SW5       30.08S
HUNTINGBURG *+ CLEAR     75  72  88 S6        30.09S
WASHINGTON +   CLEAR     76  76 100 MISG      30.06S

$$

INZ062-063-066-070>080-084-089>092-251100-
SOUTH CENTRAL AND SOUTHEAST INDIANA

CITY           SKY/WX    TMP DP  RH WIND       PRES   REMARKS
BLOOMINGTON    MOCLDY    77  73  87 SW7       30.06F
MADISON *+     CLEAR     73  72  94 S6        30.10F

$$





USA.gov is the U.S. government's official web portal to all federal, state and local government web resources and services.